{"data":{"norad_id":63860,"epoch":"2026-05-24T22:41:38.319360Z","epoch_age_seconds":70030,"freshness":"FRESH","line1":"1 63860U 25093AA  26144.94558240  .00014745  00000+0  54389-3 0  9998","line2":"2 63860  43.0051   7.3068 0001524 267.6444  92.4234 15.27603620 59636","mean_motion":15.2760362,"eccentricity":0.0001524,"inclination_deg":43.0051,"raan_deg":7.3068,"arg_perigee_deg":267.6444,"mean_anomaly_deg":92.4234,"bstar":0.00054389,"rev_number":5963,"period_min":94.265291149284,"perigee_km":481.93273619131,"apogee_km":484.02400415614,"semimajor_km":6861.1153701737,"source":"CELESTRAK","updated_at":"2026-05-25T13:38:20.166791Z"}}